This demonstration page uses our WeatherBlox Daily Observations layout. Learn more.

Left ArrowRight Arrow

Hourly Observations for July 11, 2018

Temp ( °F °C ) Dew Point ( °F °C ) Humidity (%) Winds ( mph kmh ) Pressure ( in mb ) Visibility ( mi km ) Precip ( " mm )
12:16 am 00:16 Clear 72 22 68 20 88 88 NNW 8 13 30.03 1017 10 16.0934 N/A
12:36 am 00:36 Clear 72 22 66 19 83 83 NNW 7 11 30.03 1017 10 16.0934 N/A
12:57 am 00:57 Clear 72 22 66 19 83 83 NNW 8 13 30.03 1017 10 16.0934 N/A
1:16 am 01:16 Clear 70 21 66 19 88 88 N 8 13 30.06 1018 10 16.0934 N/A
1:37 am 01:37 Clear 70 21 66 19 88 88 N 5 7 30.06 1018 10 16.0934 N/A
1:56 am 01:56 Clear 68 20 66 19 94 94 N N/A 30.06 1018 10 16.0934 N/A
2:17 am 02:17 Clear 68 20 66 19 94 94 N 5 7 30.06 1018 10 16.0934 N/A
2:37 am 02:37 Clear 68 20 66 19 94 94 NNE 3 6 30.06 1018 10 16.0934 N/A
2:56 am 02:56 Clear 66 19 64 18 94 94 N 3 6 30.03 1017 10 16.0934 N/A
3:17 am 03:17 Clear 66 19 64 18 94 94 N 3 6 30.03 1017 10 16.0934 N/A
3:36 am 03:36 Clear 66 19 66 19 100 100 N N/A 30.06 1018 10 16.0934 N/A
3:56 am 03:56 Clear 66 19 66 19 100 100 N N/A 30.06 1018 10 16.0934 N/A
4:17 am 04:17 Mostly Cloudy 66 19 66 19 100 100 N N/A 30.06 1018 10 16.0934 N/A
4:36 am 04:36 Mostly Cloudy 66 19 66 19 100 100 NNE 3 6 30.06 1018 10 16.0934 N/A
4:57 am 04:57 Partly Cloudy 66 19 66 19 100 100 ENE 5 7 30.06 1018 10 16.0934 N/A
5:16 am 05:16 Partly Cloudy 68 20 68 20 100 100 ENE 8 13 30.09 1019 10 16.0934 N/A
5:36 am 05:36 Clear 68 20 68 20 100 100 E 7 11 30.09 1019 10 16.0934 N/A
5:57 am 05:57 Clear 68 20 68 20 100 100 E 7 11 30.09 1019 10 16.0934 N/A
6:16 am 06:16 Clear 68 20 66 19 94 94 E 7 11 30.09 1019 10 16.0934 N/A
6:37 am 06:37 Sunny 66 19 64 18 94 94 ENE 6 9 30.09 1019 10 16.0934 N/A
6:56 am 06:56 Partly Cloudy 66 19 64 18 94 94 ENE 6 9 30.09 1019 10 16.0934 N/A
7:16 am 07:16 Partly Cloudy 66 19 64 18 94 94 ENE 5 7 30.12 1020 10 16.0934 N/A
7:37 am 07:37 Mostly Cloudy 68 20 64 18 88 88 N N/A 30.12 1020 10 16.0934 N/A
7:56 am 07:56 Cloudy 68 20 64 18 88 88 N N/A 30.12 1020 10 16.0934 N/A
8:17 am 08:17 Cloudy 68 20 64 18 88 88 E 3 6 30.12 1020 10 16.0934 N/A
8:36 am 08:36 Mostly Cloudy 70 21 64 18 83 83 E 3 6 30.12 1020 10 16.0934 N/A
8:57 am 08:57 Sunny 72 22 63 17 73 73 E 7 11 30.09 1019 10 16.0934 N/A
9:17 am 09:17 Partly Cloudy 72 22 63 17 73 73 ESE 8 13 30.09 1019 10 16.0934 N/A
9:36 am 09:36 Partly Cloudy 73 23 64 18 74 74 ESE 9 15 30.09 1019 10 16.0934 N/A
9:57 am 09:57 Sunny 73 23 63 17 69 69 E 10 17 30.12 1020 10 16.0934 N/A
10:16 am 10:16 Partly Cloudy 73 23 64 18 74 74 E 8 13 30.12 1020 10 16.0934 N/A
10:37 am 10:37 Partly Cloudy 75 24 64 18 69 69 E 7 11 30.12 1020 10 16.0934 N/A
10:56 am 10:56 Mostly Cloudy 75 24 64 18 69 69 E 6 9 30.12 1020 10 16.0934 N/A
11:17 am 11:17 Partly Cloudy 77 25 66 19 69 69 E 7 11 30.12 1020 10 16.0934 N/A
11:36 am 11:36 Partly Cloudy 77 25 64 18 65 65 E 7 11 30.12 1020 10 16.0934 N/A
11:57 am 11:57 Partly Cloudy 79 26 64 18 61 61 ENE 6 9 30.12 1020 10 16.0934 N/A
12:17 pm 12:17 Mostly Cloudy 79 26 66 19 65 65 E 6 9 30.12 1020 10 16.0934 N/A
12:36 pm 12:36 Partly Cloudy 79 26 64 18 61 61 ENE 7 11 30.12 1020 10 16.0934 N/A
12:57 pm 12:57 Partly Cloudy 81 27 66 19 62 62 E 8 13 30.12 1020 10 16.0934 N/A
1:16 pm 13:16 Mostly Cloudy 79 26 64 18 61 61 ENE 7 11 30.12 1020 10 16.0934 N/A
1:37 pm 13:37 Partly Cloudy 81 27 66 19 62 62 NE 9 15 30.12 1020 10 16.0934 N/A
1:57 pm 13:57 Sunny 81 27 66 19 62 62 E 8 13 30.12 1020 10 16.0934 N/A
2:16 pm 14:16 Sunny 81 27 66 19 62 62 NE 7 11 30.12 1020 10 16.0934 N/A
2:37 pm 14:37 Sunny 82 28 66 19 58 58 ENE 6 9 30.12 1020 10 16.0934 N/A
2:56 pm 14:56 Sunny 82 28 66 19 58 58 NE 6 9 30.09 1019 10 16.0934 N/A
3:17 pm 15:17 Sunny 82 28 66 19 58 58 E 7 11 30.09 1019 10 16.0934 N/A
3:36 pm 15:36 Sunny 82 28 66 19 58 58 ENE 7 11 30.09 1019 10 16.0934 N/A
3:56 pm 15:56 Sunny 82 28 66 19 58 58 ENE 6 9 30.09 1019 10 16.0934 N/A
4:17 pm 16:17 Sunny 82 28 68 20 62 62 NE 5 7 30.09 1019 10 16.0934 N/A
4:36 pm 16:36 Sunny 82 28 68 20 62 62 ENE 7 11 30.09 1019 10 16.0934 N/A
4:57 pm 16:57 Sunny 82 28 68 20 62 62 ENE 10 17 30.09 1019 10 16.0934 N/A
5:16 pm 17:16 Sunny 82 28 66 19 58 58 ENE 7 11 30.09 1019 10 16.0934 N/A
5:37 pm 17:37 Sunny 82 28 66 19 58 58 ENE 8 13 30.09 1019 10 16.0934 N/A
5:57 pm 17:57 Sunny 82 28 66 19 58 58 E 9 15 30.09 1019 10 16.0934 N/A
6:16 pm 18:16 Sunny 82 28 66 19 58 58 ENE 9 15 30.09 1019 10 16.0934 N/A
6:37 pm 18:37 Sunny 81 27 68 20 66 66 ENE 8 13 30.09 1019 10 16.0934 N/A
6:56 pm 18:56 Sunny 79 26 68 20 70 70 E 8 13 30.09 1019 10 16.0934 N/A
7:17 pm 19:17 Sunny 79 26 68 20 70 70 E 6 9 30.09 1019 10 16.0934 N/A
7:36 pm 19:36 Sunny 79 26 68 20 70 70 E 8 13 30.09 1019 10 16.0934 N/A
7:56 pm 19:56 Sunny 77 25 66 19 69 69 ENE 7 11 30.09 1019 10 16.0934 N/A
8:17 pm 20:17 Sunny 75 24 68 20 78 78 ENE 7 11 30.09 1019 10 16.0934 N/A
8:36 pm 20:36 Sunny 75 24 68 20 78 78 ENE 7 11 30.09 1019 10 16.0934 N/A
8:57 pm 20:57 Sunny 72 22 66 19 83 83 ENE 7 11 30.09 1019 10 16.0934 N/A
9:16 pm 21:16 Clear 70 21 66 19 88 88 ENE 6 9 30.12 1020 10 16.0934 N/A
9:37 pm 21:37 Clear 68 20 66 19 94 94 ENE 6 9 30.12 1020 10 16.0934 N/A
9:56 pm 21:56 Clear 68 20 66 19 94 94 N N/A 30.12 1020 10 16.0934 N/A
10:16 pm 22:16 Clear 66 19 66 19 100 100 N N/A 30.12 1020 10 16.0934 N/A
10:37 pm 22:37 Clear 64 18 64 18 100 100 N N/A 30.15 1021 10 16.0934 N/A
10:56 pm 22:56 Clear 66 19 66 19 100 100 N N/A 30.15 1021 10 16.0934 N/A
11:17 pm 23:17 Clear 66 19 64 18 94 94 E 3 6 30.15 1021 10 16.0934 N/A
11:37 pm 23:37 Clear 64 18 64 18 100 100 E 3 6 30.15 1021 10 16.0934 N/A
11:56 pm 23:56 Clear 66 19 64 18 94 94 E 5 7 30.15 1021 10 16.0934 N/A

Powered by AerisWeather